Jackson Hawkins Field, MS

3:21 PM CDT on May 23, 2017 (GMT -0500)
Hawkins

Weather History for KHKS - November, 2012

Change the Weather History Date:

Saturday, November 10, 2012

  Actual Average (KJAN) Record (KJAN)
Temperature  
Mean Temperature 62 °F -  
Max Temperature 75 °F 68 °F 85 °F (2002)
Min Temperature 50 °F 42 °F 23 °F (1991)
Degree Days  
Heating Degree Days 2    
Growing Degree Days 12 (Base 50)    
Moisture  
Dew Point 52 °F    
Average Humidity 73    
Maximum Humidity 96    
Minimum Humidity 43    
Precipitation  
Precipitation 0.00 in - - ()
Sea Level Pressure  
Sea Level Pressure 30.18 in    
Wind  
Wind Speed 6 mph (SSE)    
Max Wind Speed 15 mph    
Max Gust Speed 22 mph    
Visibility 8 miles    
Events      
Averages and records for this station are not official NWS values.
T = Trace of Precipitation, MM = Missing Value Source: NWS Daily Summary

Daily Weather History Graph

Daily Weather History Graph

Search for Another Location

Airport or City:

Trip Planner

Search our weather history database for the weather conditions in past years. The results will help you decide how hot, cold, wet, or windy it might be!

Date:

Astronomy

Nov. 10, 2012 Rise Set
Actual Time 6:26 AM CST 5:03 PM CST
Civil Twilight 6:00 AM CST 5:28 PM CST
Nautical Twilight 5:30 AM CST 5:58 PM CST
Astronomical Twilight 5:01 AM CST 6:27 PM CST
Moon 2:42 AM CST (11/10) 2:40 PM CST (11/10)
Length of Visible Light 11h 28m
Length of Day
10h 36m
Waning Crescent, 14% of the Moon is Illuminated
Nov 10
Waning Crescent
Nov 13
New
Nov 20
First Quarter
Nov 28
Full
Dec 6
Last Quarter

Hourly Weather History & Observations

Time (CST) Temp. Dew Point Humidity Pressure Visibility Wind Dir Wind Speed Gust Speed Precip Events Conditions
12:53 AM 52.0 °F 50.0 °F 93% 30.18 in 10.0 mi SSE 5.8 mph - N/A   Clear
1:53 AM 52.0 °F 48.9 °F 89% 30.18 in 8.0 mi SE 3.5 mph - N/A   Clear
2:53 AM 51.1 °F 48.9 °F 92% 30.19 in 5.0 mi Calm Calm - N/A   Clear
3:53 AM 50.0 °F 48.0 °F 93% 30.18 in 4.0 mi Calm Calm - N/A   Clear
4:53 AM 50.0 °F 48.0 °F 93% 30.19 in 4.0 mi ESE 3.5 mph - N/A   Clear
5:53 AM 50.0 °F 48.0 °F 93% 30.20 in 4.0 mi Calm Calm - N/A   Clear
6:36 AM 50.0 °F 48.2 °F 94% 30.22 in 2.0 mi Calm Calm - N/A   Clear
6:53 AM 50.0 °F 48.9 °F 96% 30.22 in 4.0 mi Calm Calm - N/A   Clear
7:53 AM 55.0 °F 52.0 °F 89% 30.24 in 9.0 mi SE 4.6 mph - N/A   Clear
8:53 AM 62.1 °F 54.0 °F 75% 30.25 in 10.0 mi SSE 8.1 mph - N/A   Clear
9:53 AM 66.9 °F 55.0 °F 66% 30.24 in 10.0 mi SE 8.1 mph - N/A   Clear
10:53 AM 72.0 °F 54.0 °F 53% 30.23 in 10.0 mi South 12.7 mph - N/A   Clear
11:53 AM 73.9 °F 53.1 °F 48% 30.20 in 10.0 mi South 11.5 mph 21.9 mph N/A   Clear
12:53 PM 75.9 °F 52.0 °F 43% 30.17 in 10.0 mi SSW 11.5 mph - N/A   Partly Cloudy
1:53 PM 75.9 °F 53.1 °F 45% 30.14 in 10.0 mi SSE 13.8 mph - N/A   Partly Cloudy
2:53 PM 75.9 °F 54.0 °F 46% 30.12 in 10.0 mi South 10.4 mph 19.6 mph N/A   Scattered Clouds
3:53 PM 73.0 °F 53.1 °F 49% 30.12 in 10.0 mi South 15.0 mph - N/A   Mostly Cloudy
4:53 PM 70.0 °F 53.1 °F 55% 30.12 in 10.0 mi SSE 8.1 mph - N/A   Partly Cloudy
5:53 PM 64.9 °F 54.0 °F 68% 30.14 in 10.0 mi SE 5.8 mph - N/A   Clear
6:53 PM 64.0 °F 54.0 °F 70% 30.15 in 10.0 mi SE 6.9 mph - N/A   Clear
7:53 PM 64.9 °F 55.0 °F 70% 30.16 in 10.0 mi SSE 10.4 mph - N/A   Clear
8:53 PM 63.0 °F 55.0 °F 75% 30.16 in 10.0 mi SSE 9.2 mph - N/A   Clear
10:53 PM 61.0 °F 53.1 °F 75% 30.15 in 10.0 mi SE 8.1 mph - N/A   Clear
11:53 PM 61.0 °F 53.1 °F 75% 30.13 in 10.0 mi SE 11.5 mph - N/A   Clear